SWA442 KSAN-KBUR

Flight info

Callsign SWA442
Flight time N/A
Altitude 10000
Route CWARD2 LAX SILEX
Aircraft B738/M-VGDW/C

Departure

Time 2026-05-05 05:32
Airport San Diego International Airport (KSAN)

Arrival

Time N/A
Airport Hollywood Burbank/Bob Hope Airport (KBUR)
Time Latitude Longitude Altitude Speed Heading
2026-05-05 05:31 32.77282 -117.27635 1078 ft 208 kts 309°
2026-05-05 05:32 32.78260 -117.28880 1509 ft 204 kts 306°
2026-05-05 05:32 32.79082 -117.30230 1938 ft 199 kts 300°
2026-05-05 05:32 32.79844 -117.31635 2281 ft 205 kts 301°
2026-05-05 05:32 32.80733 -117.32977 2628 ft 212 kts 304°
2026-05-05 05:33 32.81626 -117.34409 2975 ft 221 kts 303°
2026-05-05 05:33 32.82610 -117.35965 3315 ft 249 kts 305°
2026-05-05 05:33 32.83685 -117.37624 3673 ft 255 kts 305°
2026-05-05 05:33 32.84775 -117.39302 4040 ft 257 kts 306°
2026-05-05 05:34 32.85869 -117.40998 4422 ft 258 kts 306°
2026-05-05 05:34 32.86959 -117.42694 4804 ft 260 kts 305°
2026-05-05 05:34 32.88058 -117.44402 5322 ft 260 kts 305°
2026-05-05 05:34 32.89165 -117.46122 5915 ft 263 kts 305°
2026-05-05 05:35 32.90286 -117.47863 6498 ft 266 kts 305°
2026-05-05 05:35 32.91419 -117.49627 7053 ft 269 kts 305°
2026-05-05 05:35 32.92560 -117.51403 7644 ft 270 kts 304°
2026-05-05 05:35 32.93706 -117.53186 8270 ft 272 kts 304°
2026-05-05 05:36 32.94859 -117.54982 8918 ft 275 kts 304°
2026-05-05 05:36 32.96011 -117.56778 9563 ft 278 kts 304°
2026-05-05 05:36 32.97192 -117.58621 9948 ft 281 kts 304°
2026-05-05 05:36 32.98370 -117.60455 10243 ft 274 kts 304°
2026-05-05 05:37 32.99547 -117.62292 10822 ft 282 kts 303°
2026-05-05 05:37 33.00740 -117.64158 11414 ft 284 kts 304°
2026-05-05 05:37 33.01947 -117.66042 12019 ft 286 kts 304°
2026-05-05 05:37 33.03166 -117.67948 12626 ft 290 kts 304°
2026-05-05 05:38 33.04407 -117.69890 12955 ft 300 kts 304°
2026-05-05 05:38 33.05656 -117.71843 12951 ft 294 kts 304°
2026-05-05 05:38 33.07011 -117.73626 12960 ft 297 kts 315°
2026-05-05 05:38 33.08602 -117.75249 12952 ft 297 kts 316°
2026-05-05 05:39 33.10174 -117.76808 12952 ft 297 kts 316°
2026-05-05 05:39 33.11750 -117.78402 12956 ft 298 kts 316°
2026-05-05 05:39 33.13393 -117.80092 12973 ft 326 kts 316°
2026-05-05 05:39 33.15133 -117.81869 12970 ft 329 kts 316°
2026-05-05 05:40 33.16887 -117.83643 12967 ft 331 kts 316°
2026-05-05 05:40 33.18669 -117.85393 12965 ft 333 kts 322°
2026-05-05 05:40 33.20801 -117.86540 12969 ft 341 kts 342°
2026-05-05 05:40 33.23122 -117.87165 12964 ft 342 kts 345°
2026-05-05 05:41 33.25466 -117.87713 12968 ft 342 kts 346°
2026-05-05 05:41 33.27799 -117.88269 12968 ft 342 kts 345°
2026-05-05 05:41 33.30131 -117.88859 12967 ft 342 kts 345°
2026-05-05 05:41 33.32458 -117.89451 12966 ft 342 kts 345°
2026-05-05 05:42 33.34790 -117.90030 12966 ft 342 kts 345°
2026-05-05 05:42 33.37121 -117.90620 12969 ft 341 kts 342°
2026-05-05 05:42 33.39240 -117.91743 12970 ft 335 kts 322°
2026-05-05 05:42 33.41090 -117.93417 12972 ft 333 kts 319°
2026-05-05 05:43 33.42904 -117.95167 12973 ft 334 kts 318°
2026-05-05 05:43 33.44719 -117.96911 12973 ft 335 kts 319°
2026-05-05 05:43 33.46549 -117.98634 12975 ft 335 kts 319°
2026-05-05 05:43 33.48384 -118.00358 12978 ft 335 kts 319°
2026-05-05 05:44 33.50214 -118.02092 12977 ft 335 kts 319°
2026-05-05 05:44 33.52019 -118.03809 12972 ft 335 kts 319°
2026-05-05 05:44 33.53848 -118.05544 12974 ft 335 kts 319°
2026-05-05 05:44 33.55679 -118.07278 12808 ft 337 kts 319°
2026-05-05 05:45 33.57512 -118.09017 12315 ft 335 kts 319°
2026-05-05 05:45 33.59329 -118.10743 11789 ft 332 kts 319°
2026-05-05 05:45 33.61127 -118.12452 11440 ft 328 kts 319°
2026-05-05 05:45 33.62914 -118.14151 11160 ft 328 kts 319°
2026-05-05 05:46 33.64696 -118.15847 10956 ft 325 kts 319°
2026-05-05 05:46 33.66476 -118.17541 10959 ft 327 kts 319°
2026-05-05 05:46 33.68256 -118.19237 10963 ft 326 kts 319°
2026-05-05 05:46 33.70040 -118.20937 10929 ft 328 kts 319°
2026-05-05 05:47 33.71801 -118.22615 10716 ft 325 kts 319°
2026-05-05 05:47 33.73574 -118.24306 10492 ft 325 kts 319°
2026-05-05 05:47 33.75327 -118.25978 10229 ft 317 kts 319°
2026-05-05 05:47 33.77035 -118.27608 9944 ft 310 kts 319°
2026-05-05 05:48 33.78705 -118.29203 9656 ft 303 kts 319°
2026-05-05 05:48 33.80325 -118.30752 9559 ft 294 kts 318°
2026-05-05 05:48 33.81920 -118.32279 9438 ft 292 kts 318°
2026-05-05 05:48 33.83502 -118.33794 9322 ft 290 kts 318°
2026-05-05 05:49 33.85079 -118.35304 9213 ft 289 kts 318°
2026-05-05 05:49 33.86651 -118.36809 9121 ft 288 kts 319°
2026-05-05 05:49 33.88212 -118.38306 9016 ft 286 kts 319°
2026-05-05 05:49 33.89770 -118.39799 8896 ft 286 kts 319°
2026-05-05 05:50 33.91327 -118.41291 8639 ft 285 kts 319°
2026-05-05 05:50 33.92875 -118.42776 8405 ft 284 kts 320°
2026-05-05 05:50 33.94552 -118.44037 8169 ft 284 kts 328°
2026-05-05 05:50 33.96261 -118.45170 7944 ft 284 kts 328°
2026-05-05 05:51 33.97984 -118.46318 7686 ft 283 kts 328°
2026-05-05 05:51 33.99703 -118.47470 7377 ft 282 kts 328°
2026-05-05 05:51 34.01414 -118.48616 7059 ft 281 kts 329°
2026-05-05 05:51 34.03120 -118.49759 6737 ft 280 kts 329°
2026-05-05 05:52 34.04821 -118.50898 6419 ft 278 kts 329°
2026-05-05 05:52 34.06481 -118.52009 6041 ft 262 kts 329°
2026-05-05 05:52 34.08008 -118.53028 5719 ft 240 kts 329°
2026-05-05 05:52 34.09428 -118.53983 5404 ft 233 kts 328°
2026-05-05 05:53 34.10851 -118.54941 5112 ft 229 kts 329°
2026-05-05 05:53 34.12205 -118.55848 4991 ft 221 kts 329°
2026-05-05 05:53 34.13596 -118.56785 4896 ft 233 kts 329°
2026-05-05 05:53 34.15001 -118.57728 4768 ft 233 kts 329°
2026-05-05 05:54 34.16409 -118.58674 4616 ft 229 kts 329°
2026-05-05 05:54 34.16862 -118.58978 4568 ft 231 kts 329°